Buffalo, MN

3:31 PM CST on December 14, 2019 (GMT -0600)
Buffalo

Weather History for KCFE - November, 2019

Change the Weather History Date:

Saturday, November 16, 2019

  Actual Average (KMIC) Record (KMIC)
Temperature  
Mean Temperature 40 °F -  
Max Temperature 46 °F 39 °F 64 °F (2001)
Min Temperature 33 °F 25 °F 9 °F (1997)
Degree Days  
Heating Degree Days 26    
Moisture  
Dew Point 29 °F    
Average Humidity 68    
Maximum Humidity 83    
Minimum Humidity 44    
Precipitation  
Precipitation 0.00 in - - ()
Sea Level Pressure  
Sea Level Pressure 30.07 in    
Wind  
Wind Speed - (North)    
Max Wind Speed -    
Max Gust Speed -    
Visibility 10 miles    
Events Rain    
Averages and records for this station are not official NWS values.
T = Trace of Precipitation, MM = Missing Value Source: NWS Daily Summary

Daily Weather History Graph

Daily Weather History Graph

Search for Another Location

Airport or City:

Astronomy

Nov. 16, 2019 Rise Set
Actual Time 7:14 AM CST 4:45 PM CST
Civil Twilight 6:42 AM CST 5:17 PM CST
Nautical Twilight 6:06 AM CST 5:52 PM CST
Astronomical Twilight 5:32 AM CST 6:27 PM CST
Moon 8:13 PM CST (11/16) 11:14 AM CST (11/16)
Length of Visible Light 10h 34m
Length of Day
9h 30m
Waning Gibbous, 82% of the Moon is Illuminated
Nov 16
Waning Gibbous
Nov 19
Last Quarter
Nov 26
New
Dec 4
First Quarter
Dec 11
Full

Hourly Weather History & Observations

Time (CST) Temp. Dew Point Humidity Pressure Visibility Wind Dir Wind Speed Gust Speed Precip Events Conditions
12:15 AM 34.0 °F 27.5 °F 77% 30.24 in 10.0 mi North - - N/A   Clear
12:55 AM 34.7 °F 28.4 °F 78% 30.23 in 10.0 mi North - - N/A   Clear
1:15 AM 34.2 °F 28.4 °F 79% 30.22 in 10.0 mi North - - N/A   Scattered Clouds
1:55 AM 34.0 °F 28.8 °F 81% 30.21 in 10.0 mi North - - N/A   Scattered Clouds
2:15 AM 34.3 °F 28.9 °F 81% 30.21 in 10.0 mi North - - N/A   Scattered Clouds
2:35 AM 34.0 °F 28.8 °F 81% 30.20 in 10.0 mi North - - N/A   Clear
2:36 AM 34.0 °F 28.9 °F 82% 30.20 in 10.0 mi North - - N/A   Clear
2:55 AM 33.8 °F 28.8 °F 82% 30.19 in 10.0 mi North - - N/A   Clear
3:15 AM 33.8 °F 28.6 °F 81% 30.19 in 10.0 mi North - - N/A   Clear
3:35 AM 33.8 °F 28.4 °F 81% 30.18 in 10.0 mi North - - N/A   Clear
3:36 AM 34.0 °F 28.6 °F 81% 30.18 in 10.0 mi North - - N/A   Clear
3:55 AM 34.0 °F 28.4 °F 80% 30.17 in 10.0 mi North - - N/A   Clear
3:56 AM 33.8 °F 28.4 °F 81% 30.17 in 10.0 mi North - - N/A   Clear
4:15 AM 33.8 °F 28.4 °F 81% 30.17 in 10.0 mi North - - N/A   Clear
4:35 AM 33.8 °F 28.4 °F 81% 30.16 in 10.0 mi North - - N/A   Clear
5:15 AM 34.0 °F 28.2 °F 79% 30.16 in 10.0 mi North - - N/A   Clear
5:35 AM 33.8 °F 28.2 °F 80% 30.16 in 10.0 mi North - - N/A   Clear
5:55 AM 33.8 °F 28.2 °F 80% 30.16 in 10.0 mi North - - N/A   Clear
6:15 AM 34.3 °F 28.2 °F 78% 30.16 in 10.0 mi North - - N/A   Clear
6:55 AM 34.9 °F 28.0 °F 76% 30.14 in 10.0 mi North - - N/A   Clear
7:15 AM 35.6 °F 27.5 °F 72% 30.14 in 10.0 mi North - - N/A   Clear
7:16 AM 35.6 °F 27.5 °F 72% 30.14 in 10.0 mi North - - N/A   Clear
7:35 AM 35.8 °F 27.3 °F 71% 30.14 in 10.0 mi North - - N/A   Scattered Clouds
7:55 AM 36.5 °F 27.1 °F 69% 30.14 in 10.0 mi North - - N/A   Mostly Cloudy
8:15 AM 37.4 °F 27.0 °F 66% 30.13 in 10.0 mi North - - N/A   Overcast
8:35 AM 37.4 °F 26.6 °F 65% 30.13 in 10.0 mi North - - N/A   Scattered Clouds
8:55 AM 37.6 °F 26.6 °F 65% 30.13 in 10.0 mi North - - N/A   Mostly Cloudy
8:56 AM 37.6 °F 26.6 °F 65% 30.13 in 10.0 mi North - - N/A   Mostly Cloudy
9:15 AM 37.8 °F 26.6 °F 64% 30.13 in 10.0 mi North - - N/A   Scattered Clouds
9:35 AM 37.8 °F 26.4 °F 64% 30.13 in 10.0 mi North - - N/A   Clear
9:36 AM 37.9 °F 26.6 °F 64% 30.13 in 10.0 mi North - - N/A   Clear
9:55 AM 40.1 °F 26.4 °F 58% 30.12 in 10.0 mi North - - N/A   Clear
10:15 AM 39.7 °F 25.5 °F 57% 30.12 in 10.0 mi North - - N/A   Clear
10:35 AM 41.0 °F 25.7 °F 55% 30.12 in 10.0 mi North - - N/A   Clear
10:55 AM 41.0 °F 25.2 °F 53% 30.11 in 10.0 mi North - - N/A   Clear
11:15 AM 43.0 °F 25.5 °F 50% 30.10 in 10.0 mi North - - N/A   Scattered Clouds
11:35 AM 42.4 °F 25.7 °F 52% 30.09 in 10.0 mi North - - N/A   Scattered Clouds
11:55 AM 44.6 °F 26.1 °F 48% 30.07 in 10.0 mi North - - N/A   Clear
12:15 PM 44.1 °F 26.2 °F 50% 30.05 in 10.0 mi North - - N/A   Clear
12:35 PM 45.1 °F 26.6 °F 48% 30.05 in 10.0 mi North - - N/A   Clear
12:55 PM 45.7 °F 25.9 °F 46% 30.04 in 10.0 mi North - - N/A   Clear
1:15 PM 46.6 °F 25.7 °F 44% 30.03 in 10.0 mi North - - N/A   Clear
1:35 PM 46.4 °F 25.3 °F 44% 30.01 in 10.0 mi North - - N/A   Clear
1:36 PM 46.4 °F 25.3 °F 44% 30.01 in 10.0 mi North - - N/A   Clear
1:55 PM 45.9 °F 25.7 °F 45% 30.01 in 10.0 mi North - - N/A   Clear
2:15 PM 44.6 °F 26.4 °F 49% 30.00 in 10.0 mi North - - N/A   Clear
2:35 PM 44.6 °F 26.6 °F 49% 29.99 in 10.0 mi North - - N/A   Clear
2:55 PM 44.6 °F 27.1 °F 50% 29.99 in 10.0 mi North - - N/A   Clear
2:56 PM 44.6 °F 27.1 °F 50% 29.99 in 10.0 mi North - - N/A   Clear
3:15 PM 43.7 °F 27.5 °F 53% 29.99 in 10.0 mi North - - N/A   Clear
3:35 PM 43.2 °F 28.4 °F 56% 29.99 in 10.0 mi North - - N/A   Clear
3:55 PM 42.8 °F 28.8 °F 58% 30.00 in 10.0 mi North - - N/A   Clear
4:35 PM 42.1 °F 29.3 °F 61% 29.98 in 10.0 mi North - - N/A   Mostly Cloudy
4:55 PM 41.9 °F 29.7 °F 62% 29.99 in 10.0 mi North - - N/A   Scattered Clouds
5:15 PM 41.0 °F 30.0 °F 65% 29.99 in 10.0 mi North - - N/A   Clear
5:35 PM 41.2 °F 30.2 °F 65% 29.99 in 10.0 mi North - - N/A   Clear
5:55 PM 41.2 °F 30.7 °F 66% 30.00 in 10.0 mi North - - N/A   Clear
6:15 PM 41.2 °F 30.9 °F 67% 30.00 in 10.0 mi North - - N/A   Clear
6:35 PM 41.2 °F 31.1 °F 67% 30.00 in 10.0 mi North - - N/A   Scattered Clouds
6:55 PM 41.0 °F 31.1 °F 68% 30.00 in 10.0 mi North - - N/A   Mostly Cloudy
7:15 PM 41.0 °F 31.1 °F 68% 29.99 in 10.0 mi North - - N/A   Overcast
7:35 PM 40.5 °F 31.1 °F 69% 29.99 in 10.0 mi North - - N/A   Scattered Clouds
7:55 PM 40.1 °F 31.3 °F 71% 29.99 in 10.0 mi North - - N/A   Mostly Cloudy
8:15 PM 40.1 °F 31.1 °F 70% 29.99 in 10.0 mi North - - N/A   Mostly Cloudy
8:35 PM 39.4 °F 31.5 °F 73% 29.98 in 10.0 mi North - - N/A   Mostly Cloudy
8:36 PM 39.4 °F 31.5 °F 73% 29.98 in 10.0 mi North - - N/A   Mostly Cloudy
8:55 PM 39.2 °F 31.6 °F 74% 29.98 in 10.0 mi North - - N/A   Overcast
9:15 PM 39.2 °F 31.8 °F 75% 29.98 in 10.0 mi North - - N/A   Overcast
9:16 PM 39.2 °F 31.8 °F 75% 29.98 in 10.0 mi North - - N/A   Overcast
9:35 PM 39.2 °F 32.0 °F 75% 29.97 in 10.0 mi North - - N/A   Overcast
9:36 PM 39.2 °F 32.0 °F 75% 29.97 in 10.0 mi North - - N/A   Overcast
9:55 PM 39.0 °F 32.0 °F 76% 29.97 in 10.0 mi North - - N/A   Overcast
9:56 PM 38.8 °F 32.0 °F 76% 29.97 in 10.0 mi North - - N/A   Overcast
10:15 PM 38.5 °F 32.0 °F 78% 29.96 in 10.0 mi North - - N/A   Overcast
10:35 PM 38.5 °F 32.0 °F 78% 29.96 in 10.0 mi North - - N/A   Overcast
10:55 PM 38.3 °F 32.0 °F 78% 29.96 in 10.0 mi North - - N/A   Light Drizzle
10:56 PM 38.3 °F 32.0 °F 78% 29.96 in 10.0 mi North - - N/A   Light Drizzle
11:15 PM 38.3 °F 32.0 °F 78% 29.96 in 7.0 mi North - - N/A Rain Rain
11:35 PM 37.4 °F 32.4 °F 82% 29.96 in 7.0 mi North - - N/A Rain Rain
11:55 PM 37.4 °F 32.5 °F 83% 29.95 in 7.0 mi North - - N/A Rain Light Rain
11:56 PM 37.4 °F 32.5 °F 83% 29.95 in 7.0 mi North - - N/A Rain Light Rain